Regional Weather Roundup
Issued by NWS

Home | Current Version | Previous Version | Graphics & Text | Print | Product List | Glossary On
Versions: 1 2 3 4 5 6 7 8 9 10 11 12 13 14 15 16 17 18 19 20 21 22 23 24 25 26 27 28 29 30 31 32 33 34 35 36 37 38 39 40 41 42 43 44 45 46 47 48 49 50
000
ASUS43 KLSX 222059
RWRMO

WEATHER SUMMARY FOR MISSOURI
NATIONAL WEATHER SERVICE SPRINGFIELD MO
400 PM CDT WED MAR 22 2017

NOTE: "FAIR" INDICATES FEW OR NO CLOUDS BELOW 12,000 FEET WITH NO
       SIGNIFICANT WEATHER AND/OR OBSTRUCTIONS TO VISIBILITY.
       CURRENT SKY AND/OR WEATHER CONDITIONS ARE NOT AVAILABLE FOR
       CHILLICOTHE AND FARMINGTON.

MOZ001>031-035>038-043-044-053-054-222200-
...NORTHERN AND WESTERN MISSOURI...

CITY           SKY/WX    TMP DP  RH WIND       PRES   REMARKS
KANSAS CTY INT CLOUDY    55  25  31 SE22G29   30.25F
KANSAS C DTWN  CLOUDY    56  27  32 E14       30.24F
LEE`S SUMMIT   CLOUDY    54  27  35 E13G22    30.25F
ST JOSEPH      SUNNY     57  29  34 SE10G23   30.26F
CHILLICOTHE      N/A     50  27  40 E10G20    30.35F
KIRKSVILLE     CLOUDY    46  22  38 SE13      30.38F

$$
MOZ066>068-077>081-088>096-101>105-222200-
...SOUTHWEST MISSOURI...

CITY           SKY/WX    TMP DP  RH WIND       PRES   REMARKS
SPRINGFIELD    CLOUDY    58  32  37 S9        30.24S
JOPLIN         CLOUDY    56  33  42 E13       30.21F
BRANSON        CLOUDY    54  34  47 SE12      30.25F

$$
MOZ032>034-039>042-045>050-055>058-069>072-222200-
...CENTRAL MISSOURI...

CITY           SKY/WX    TMP DP  RH WIND       PRES   REMARKS
COLUMBIA       SUNNY     54  25  32 E15       30.32F
JEFFERSON CITY SUNNY     55  25  31 E13G22    30.34F
ROLLA          SUNNY     54  26  34 NE10G21   30.32S
SEDALIA        SUNNY     55  26  32 E14G22    30.31F
WARRENSBURG    CLOUDY    54  27  35 E15       30.28F
OSAGE BEACH    SUNNY    N/A N/A N/A NE9G18    30.30F

$$
MOZ051-052-059>065-222200-
...EAST CENTRAL MISSOURI...

CITY           SKY/WX    TMP DP  RH WIND       PRES   REMARKS
ST LOUIS INTL  PTSUNNY   50  16  25 E8        30.39F
SPIRIT OF STL  PTSUNNY   52  18  26 E14       30.38F
ST CHARLES     CLOUDY    50  16  25 E12       30.39F

$$
MOZ072>076-082>087-097>100-106>115-222200-
...SOUTH CENTRAL AND SOUTHEAST MISSOURI...

CITY           SKY/WX    TMP DP  RH WIND       PRES   REMARKS
CAPE GIRARDEAU SUNNY     56  23  27 NE16      30.33F
FARMINGTON     SUNNY     53  27  36 NE9       30.35F
POPLAR BLUFF   SUNNY     56  30  37 NE12      30.32F
WEST PLAINS    MOSUNNY   59  32  36 VRB6      30.28F

$$




USA.gov is the U.S. government's official web portal to all federal, state and local government web resources and services.